Regional Weather Roundup
Issued by NWS Sioux Falls, SD

Home | Current Version | Previous Version | Text Only | Print | Product List | Glossary Off
Versions: 1 2 3 4 5 6 7 8 9 10 11 12 13 14 15 16 17 18 19 20 21 22 23 24 25 26 27 28 29 30 31 32 33 34 35 36 37 38 39 40 41 42 43 44 45 46 47 48 49 50

373
ASUS43 KFSD 152002
RWRFSD

WEATHER ROUNDUP FOR SE SOUTH DAKOTA/SW MINNESOTA/NW IOWA
NATIONAL WEATHER SERVICE SIOUX FALLS SD
200 PM CST FRI DEC 15 2017

NOTE: "FAIR" INDICATES FEW OR NO CLOUDS BELOW 12,000 FEET WITH NO
SIGNIFICANT WEATHER AND OR OBSTRUCTIONS TO VISIBILITY.


SDZ038>040-050-052>070-152100-
SOUTHEAST SOUTH DAKOTA

CITY           SKY/WX    TMP DP  RH WIND       PRES   REMARKS
BROOKINGS      CLOUDY    39  26  59 SW10      29.72F
CHAMBERLAIN    SUNNY     45  32  60 SW9       29.72F
HURON          MOSUNNY   42  27  55 S13       29.71F
MADISON        FAIR      39  27  60 SW12      29.73F
MITCHELL       CLOUDY    41  26  55 S9        29.75F
SIOUX FALLS    PTSUNNY   41  27  57 SW10      29.77F
WINNER         FAIR      49  32  52 SW10      29.73F
YANKTON        CLOUDY    41  26  55 SW10      29.79F
$$

MNZ071-072-080-081-089-090-097-098-152100-
SOUTHWEST MINNESOTA

CITY           SKY/WX    TMP DP  RH WIND       PRES   REMARKS
FAIRMONT       SUNNY     40  27  59 W14       29.79F
JACKSON        MOSUNNY   37  27  65 SW13      29.78F
LUVERNE        CLOUDY    37  27  65 W12       29.78F
MARSHALL       MOSUNNY   40  27  59 W13       29.75F
MONTEVIDEO     CLOUDY    36  30  80 CALM      29.74F
PIPESTONE      PTSUNNY   37  27  65 W10       29.74F
REDWOOD FALLS  MOSUNNY   37  29  72 SW8       29.76F
WINDOM           N/A    N/A N/A N/A SW10      29.77F
WORTHINGTON    PTSUNNY   39  26  59 W14       29.77F
$$

IAZ001>003-012>014-020>022-031-032-NEZ013-014-SDZ071-152100-
NORTHWEST IOWA

CITY           SKY/WX    TMP DP  RH WIND       PRES   REMARKS
CHEROKEE       CLOUDY    44  24  46 SW13      29.82F
DENISON        SUNNY     45  25  45 SW18G28   29.86F
ESTHERVILLE    SUNNY     40  27  59 SW15      29.78F
LE MARS        CLOUDY    43  25  49 SW12      29.81F
ORANGE CITY    CLOUDY    43  27  52 SW15      29.79F
SHELDON        CLOUDY    41  25  52 SW13G18   29.77F
SIOUX CITY     CLOUDY    42  26  53 SW12      29.83F
SPENCER        CLOUDY    43  24  47 SW16      29.79F
STORM LAKE     MOSUNNY   45  23  42 SW23      29.81F
$$

ABBREVIATIONS USED IN REMARKS
   TC - TEMPERATURE IN CELSIUS
  WCI - WIND CHILL INDEX
   HX - HEAT INDEX
  VSB - VISIBILITY





USA.gov is the U.S. government's official web portal to all federal, state and local government web resources and services.